Time,TemperatureF,DewpointF,PressureIn,WindDirection,WindDirectionDegrees,WindSpeedMPH,WindSpeedGustMPH,Humidity,HourlyPrecipIn,Conditions,Clouds,dailyrainin,SoftwareType,DateUTC
2013-08-16 00:00:00,61.7,58.4,30.12,ENE,68,0.0,0.0,89,0.00,,,0.04,VWS V14.01,2013-08-16 04:00:00,
2013-08-16 00:01:00,61.7,58.4,30.12,ENE,68,0.0,0.0,89,0.00,,,0.04,VWS V14.01,2013-08-16 04:01:00,
2013-08-16 00:02:00,61.7,58.4,30.12,ENE,68,0.0,0.0,89,0.00,,,0.00,VWS V14.01,2013-08-16 04:02:00,
2013-08-16 00:07:00,61.7,58.4,30.12,ENE,68,0.0,0.0,89,0.00,,,0.00,VWS V14.01,2013-08-16 04:07:00,
2013-08-16 00:12:00,61.7,58.4,30.12,ENE,68,0.0,0.0,89,0.00,,,0.00,VWS V14.01,2013-08-16 04:12:00,
2013-08-16 00:17:00,61.7,58.4,30.12,ENE,68,0.0,0.0,89,0.00,,,0.00,VWS V14.01,2013-08-16 04:17:00,
2013-08-16 00:22:00,61.3,58.1,30.12,ENE,68,0.0,0.0,89,0.00,,,0.00,VWS V14.01,2013-08-16 04:22:00,
2013-08-16 00:27:00,61.2,57.9,30.12,ENE,68,0.0,0.0,89,0.00,,,0.00,VWS V14.01,2013-08-16 04:27:00,
2013-08-16 00:32:00,61.2,57.9,30.12,ENE,68,0.0,0.0,89,0.00,,,0.04,VWS V14.01,2013-08-16 04:32:00,
2013-08-16 00:37:00,61.0,57.7,30.09,ENE,68,0.0,0.0,89,0.00,,,0.00,VWS V14.01,2013-08-16 04:37:00,
2013-08-16 00:42:00,61.0,57.7,30.09,ENE,68,0.0,0.0,89,0.00,,,0.04,VWS V14.01,2013-08-16 04:42:00,
2013-08-16 00:47:00,60.6,57.7,30.09,ENE,68,0.0,0.0,90,0.00,,,0.00,VWS V14.01,2013-08-16 04:47:00,
2013-08-16 00:52:00,60.6,57.7,30.12,ENE,68,0.0,0.0,90,0.00,,,0.00,VWS V14.01,2013-08-16 04:52:00,
2013-08-16 00:58:00,60.6,57.7,30.12,ENE,68,0.0,0.0,90,0.00,,,0.00,VWS V14.01,2013-08-16 04:58:00,
2013-08-16 01:03:00,60.4,57.5,30.12,ENE,68,0.0,0.0,90,0.00,,,0.00,VWS V14.01,2013-08-16 05:03:00,
2013-08-16 01:08:00,60.4,57.5,30.09,ENE,68,0.0,0.0,90,0.00,,,0.00,VWS V14.01,2013-08-16 05:08:00,
2013-08-16 01:13:00,60.3,57.3,30.09,ENE,68,0.0,0.0,90,0.00,,,0.00,VWS V14.01,2013-08-16 05:13:00,
2013-08-16 01:19:00,60.3,57.3,30.09,ENE,68,0.0,0.0,90,0.00,,,0.00,VWS V14.01,2013-08-16 05:19:00,
2013-08-16 01:24:00,60.3,57.3,30.09,ENE,68,0.0,0.0,90,0.00,,,0.00,VWS V14.01,2013-08-16 05:24:00,
2013-08-16 01:29:00,60.3,57.3,30.09,ENE,68,0.0,0.0,90,0.00,,,0.00,VWS V14.01,2013-08-16 05:29:00,
2013-08-16 01:34:00,60.1,57.1,30.09,ENE,68,0.0,0.0,90,0.00,,,0.00,VWS V14.01,2013-08-16 05:34:00,
2013-08-16 01:39:00,59.9,57.0,30.09,ENE,68,0.0,0.0,90,0.00,,,0.00,VWS V14.01,2013-08-16 05:39:00,
2013-08-16 01:45:00,59.7,56.8,30.09,ENE,68,0.0,0.0,90,0.00,,,0.00,VWS V14.01,2013-08-16 05:45:00,
2013-08-16 01:50:00,59.5,56.6,30.09,ENE,68,0.0,0.0,90,0.00,,,0.00,VWS V14.01,2013-08-16 05:50:00,
2013-08-16 01:55:00,59.5,56.6,30.09,ENE,68,0.0,0.0,90,0.00,,,0.04,VWS V14.01,2013-08-16 05:55:00,
2013-08-16 02:00:00,59.5,56.6,30.09,ENE,68,0.0,0.0,90,0.00,,,0.00,VWS V14.01,2013-08-16 06:00:00,
2013-08-16 02:05:00,59.5,56.6,30.09,ENE,68,0.0,0.0,90,0.00,,,0.00,VWS V14.01,2013-08-16 06:05:00,
2013-08-16 02:10:00,59.5,56.9,30.09,ENE,68,0.0,0.0,91,0.00,,,0.00,VWS V14.01,2013-08-16 06:10:00,
2013-08-16 02:15:00,59.5,56.6,30.09,ENE,68,0.0,0.0,90,0.00,,,0.00,VWS V14.01,2013-08-16 06:15:00,
2013-08-16 02:20:00,59.4,56.4,30.09,ENE,68,0.0,0.0,90,0.00,,,0.00,VWS V14.01,2013-08-16 06:20:00,
2013-08-16 02:25:00,59.4,56.4,30.09,ENE,68,0.0,0.0,90,0.00,,,0.00,VWS V14.01,2013-08-16 06:25:00,
2013-08-16 02:31:00,59.0,56.1,30.09,ENE,68,0.0,0.0,90,0.00,,,0.00,VWS V14.01,2013-08-16 06:31:00,
2013-08-16 02:36:00,59.0,56.4,30.09,ENE,68,0.0,0.0,91,0.00,,,0.00,VWS V14.01,2013-08-16 06:36:00,
2013-08-16 02:41:00,59.0,56.4,30.09,ENE,68,0.0,0.0,91,0.00,,,0.00,VWS V14.01,2013-08-16 06:41:00,
2013-08-16 02:46:00,58.8,56.2,30.09,ENE,68,0.0,0.0,91,0.00,,,0.00,VWS V14.01,2013-08-16 06:46:00,
2013-08-16 02:51:00,58.8,56.2,30.09,ENE,68,0.0,0.0,91,0.00,,,0.00,VWS V14.01,2013-08-16 06:51:00,
2013-08-16 02:56:00,58.8,56.2,30.09,ENE,68,0.0,0.0,91,0.00,,,0.00,VWS V14.01,2013-08-16 06:56:00,
2013-08-16 03:01:00,58.6,56.0,30.09,ENE,68,0.0,0.0,91,0.00,,,0.00,VWS V14.01,2013-08-16 07:01:00,
2013-08-16 03:06:00,58.6,56.0,30.09,ENE,68,0.0,0.0,91,0.00,,,0.00,VWS V14.01,2013-08-16 07:06:00,
2013-08-16 03:11:00,58.5,55.8,30.09,ENE,68,0.0,0.0,91,0.00,,,0.00,VWS V14.01,2013-08-16 07:11:00,
2013-08-16 03:16:00,58.5,55.8,30.09,ENE,68,0.0,0.0,91,0.00,,,0.00,VWS V14.01,2013-08-16 07:16:00,
2013-08-16 03:22:00,58.3,55.7,30.09,ENE,68,0.0,0.0,91,0.00,,,0.00,VWS V14.01,2013-08-16 07:22:00,
2013-08-16 03:27:00,58.3,55.7,30.09,ENE,68,0.0,0.0,91,0.00,,,0.00,VWS V14.01,2013-08-16 07:27:00,
2013-08-16 03:32:00,58.1,55.5,30.09,ENE,68,0.0,0.0,91,0.00,,,0.00,VWS V14.01,2013-08-16 07:32:00,
2013-08-16 03:37:00,58.3,55.7,30.09,ENE,68,0.0,0.0,91,0.00,,,0.00,VWS V14.01,2013-08-16 07:37:00,
2013-08-16 03:42:00,58.1,55.5,30.09,ENE,68,0.0,0.0,91,0.00,,,0.00,VWS V14.01,2013-08-16 07:42:00,
2013-08-16 03:47:00,58.1,55.5,30.09,ENE,68,0.0,0.0,91,0.00,,,0.04,VWS V14.01,2013-08-16 07:47:00,
2013-08-16 03:52:00,57.9,55.3,30.09,ENE,68,0.0,0.0,91,0.00,,,0.04,VWS V14.01,2013-08-16 07:52:00,
2013-08-16 03:57:00,57.9,55.3,30.09,ENE,68,0.0,0.0,91,0.00,,,0.00,VWS V14.01,2013-08-16 07:57:00,
2013-08-16 04:03:00,57.9,55.3,30.09,ENE,68,0.0,0.0,91,0.00,,,0.00,VWS V14.01,2013-08-16 08:03:00,
2013-08-16 04:08:00,57.9,55.3,30.09,ENE,68,0.0,0.0,91,0.00,,,0.00,VWS V14.01,2013-08-16 08:08:00,
2013-08-16 04:13:00,57.7,55.1,30.09,ENE,68,0.0,0.0,91,0.00,,,0.00,VWS V14.01,2013-08-16 08:13:00,
2013-08-16 04:18:00,57.7,55.1,30.09,ENE,68,0.0,0.0,91,0.00,,,0.00,VWS V14.01,2013-08-16 08:18:00,
2013-08-16 04:23:00,57.6,55.0,30.06,ENE,68,0.0,0.0,91,0.00,,,0.00,VWS V14.01,2013-08-16 08:23:00,
2013-08-16 04:28:00,57.6,55.0,30.06,ENE,68,0.0,0.0,91,0.00,,,0.00,VWS V14.01,2013-08-16 08:28:00,
2013-08-16 04:33:00,57.4,54.8,30.06,ENE,68,0.0,0.0,91,0.00,,,0.00,VWS V14.01,2013-08-16 08:33:00,
2013-08-16 04:38:00,57.2,54.6,30.09,ENE,68,0.0,0.0,91,0.00,,,0.04,VWS V14.01,2013-08-16 08:38:00,
2013-08-16 04:43:00,57.2,54.6,30.09,ENE,68,0.0,0.0,91,0.00,,,0.00,VWS V14.01,2013-08-16 08:43:00,
2013-08-16 04:49:00,57.2,54.6,30.09,ENE,68,0.0,0.0,91,0.00,,,0.00,VWS V14.01,2013-08-16 08:49:00,
2013-08-16 04:54:00,57.0,54.7,30.09,ENE,68,0.0,0.0,92,0.00,,,0.04,VWS V14.01,2013-08-16 08:54:00,
2013-08-16 04:59:00,57.0,54.7,30.09,ENE,68,0.0,0.0,92,0.00,,,0.00,VWS V14.01,2013-08-16 08:59:00,
2013-08-16 05:04:00,57.0,54.7,30.06,ENE,68,0.0,0.0,92,0.00,,,0.00,VWS V14.01,2013-08-16 09:04:00,
2013-08-16 05:09:00,56.8,54.5,30.06,ENE,68,0.0,0.0,92,0.00,,,0.00,VWS V14.01,2013-08-16 09:09:00,
2013-08-16 05:14:00,56.8,54.5,30.06,ENE,68,0.0,0.0,92,0.00,,,0.00,VWS V14.01,2013-08-16 09:14:00,
2013-08-16 05:19:00,56.8,54.5,30.09,ENE,68,0.0,0.0,92,0.00,,,0.00,VWS V14.01,2013-08-16 09:19:00,
2013-08-16 05:24:00,56.7,54.4,30.09,ENE,68,0.0,0.0,92,0.00,,,0.04,VWS V14.01,2013-08-16 09:24:00,
2013-08-16 05:29:00,56.7,54.4,30.09,ENE,68,0.0,0.0,92,0.00,,,0.00,VWS V14.01,2013-08-16 09:29:00,
2013-08-16 05:34:00,56.7,54.4,30.06,ENE,68,0.0,0.0,92,0.00,,,0.00,VWS V14.01,2013-08-16 09:34:00,
2013-08-16 05:39:00,56.5,54.2,30.06,ENE,68,0.0,0.0,92,0.00,,,0.00,VWS V14.01,2013-08-16 09:39:00,
2013-08-16 05:44:00,56.5,54.2,30.06,ENE,68,0.0,0.0,92,0.00,,,0.00,VWS V14.01,2013-08-16 09:44:00,
2013-08-16 05:49:00,56.5,54.2,30.06,ENE,68,0.0,0.0,92,0.00,,,0.00,VWS V14.01,2013-08-16 09:49:00,
2013-08-16 05:55:00,56.3,54.0,30.06,ENE,68,0.0,0.0,92,0.00,,,0.00,VWS V14.01,2013-08-16 09:55:00,
2013-08-16 06:00:00,56.1,53.8,30.06,ENE,68,0.0,0.0,92,0.00,,,0.04,VWS V14.01,2013-08-16 10:00:00,
2013-08-16 06:05:00,56.1,53.8,30.09,ENE,68,0.0,0.0,92,0.00,,,0.00,VWS V14.01,2013-08-16 10:05:00,
2013-08-16 06:10:00,56.1,53.8,30.09,ENE,68,0.0,0.0,92,0.00,,,0.00,VWS V14.01,2013-08-16 10:10:00,
2013-08-16 06:15:00,56.1,53.8,30.09,ENE,68,0.0,0.0,92,0.00,,,0.04,VWS V14.01,2013-08-16 10:15:00,
2013-08-16 06:20:00,56.1,53.8,30.09,ENE,68,0.0,0.0,92,0.00,,,0.00,VWS V14.01,2013-08-16 10:20:00,
2013-08-16 06:25:00,56.1,53.8,30.09,ENE,68,0.0,0.0,92,0.00,,,0.00,VWS V14.01,2013-08-16 10:25:00,
2013-08-16 06:30:00,56.1,53.8,30.09,ENE,68,0.0,0.0,92,0.00,,,0.00,VWS V14.01,2013-08-16 10:30:00,
2013-08-16 06:35:00,56.1,53.8,30.09,ENE,68,0.0,0.0,92,0.00,,,0.00,VWS V14.01,2013-08-16 10:35:00,
2013-08-16 06:41:00,56.1,53.8,30.09,ENE,68,0.0,0.0,92,0.00,,,0.00,VWS V14.01,2013-08-16 10:41:00,
2013-08-16 06:46:00,56.1,53.8,30.09,ENE,68,0.0,0.0,92,0.00,,,0.00,VWS V14.01,2013-08-16 10:46:00,
2013-08-16 06:51:00,56.1,53.8,30.09,ENE,68,0.0,0.0,92,0.00,,,0.00,VWS V14.01,2013-08-16 10:51:00,
2013-08-16 06:56:00,56.1,53.8,30.09,ENE,68,0.0,0.0,92,0.00,,,0.00,VWS V14.01,2013-08-16 10:56:00,
2013-08-16 07:01:00,56.3,54.0,30.09,ENE,68,0.0,0.0,92,0.00,,,0.00,VWS V14.01,2013-08-16 11:01:00,
2013-08-16 07:06:00,56.5,54.2,30.12,ENE,68,0.0,0.0,92,0.00,,,0.00,VWS V14.01,2013-08-16 11:06:00,
2013-08-16 07:11:00,56.7,54.4,30.12,ENE,68,0.0,0.0,92,0.00,,,0.04,VWS V14.01,2013-08-16 11:11:00,
2013-08-16 07:16:00,56.8,54.8,30.12,ENE,68,0.0,0.0,93,0.00,,,0.00,VWS V14.01,2013-08-16 11:16:00,
2013-08-16 07:21:00,57.2,54.9,30.12,ENE,68,0.0,0.0,92,0.00,,,0.00,VWS V14.01,2013-08-16 11:21:00,
2013-08-16 07:27:00,57.6,55.3,30.12,ENE,68,0.0,0.0,92,0.00,,,0.00,VWS V14.01,2013-08-16 11:27:00,
2013-08-16 07:32:00,57.6,55.3,30.12,ENE,68,0.0,0.0,92,0.00,,,0.00,VWS V14.01,2013-08-16 11:32:00,
2013-08-16 07:37:00,57.6,55.3,30.12,ENE,68,0.0,0.0,92,0.00,,,0.00,VWS V14.01,2013-08-16 11:37:00,
2013-08-16 07:42:00,57.6,55.3,30.12,ENE,68,0.0,0.0,92,0.00,,,0.00,VWS V14.01,2013-08-16 11:42:00,
2013-08-16 07:47:00,57.6,55.3,30.12,NE,45,0.0,0.0,92,0.00,,,0.00,VWS V14.01,2013-08-16 11:47:00,
2013-08-16 07:52:00,57.6,55.3,30.12,NE,45,0.0,0.0,92,0.00,,,0.00,VWS V14.01,2013-08-16 11:52:00,
2013-08-16 07:57:00,57.6,55.3,30.12,NE,45,0.0,0.0,92,0.00,,,0.00,VWS V14.01,2013-08-16 11:57:00,
2013-08-16 08:02:00,57.6,55.3,30.12,NE,45,0.0,0.0,92,0.00,,,0.00,VWS V14.01,2013-08-16 12:02:00,
2013-08-16 08:07:00,57.6,55.3,30.12,West,270,0.0,0.0,92,0.00,,,0.00,VWS V14.01,2013-08-16 12:07:00,
2013-08-16 08:12:00,57.6,55.3,30.12,North,0,0.0,0.0,92,0.00,,,0.00,VWS V14.01,2013-08-16 12:12:00,
2013-08-16 08:18:00,57.6,55.3,30.12,NNE,22,0.0,0.0,92,0.00,,,0.00,VWS V14.01,2013-08-16 12:18:00,
2013-08-16 08:23:00,57.6,55.3,30.12,North,0,0.0,0.0,92,0.00,,,0.00,VWS V14.01,2013-08-16 12:23:00,
2013-08-16 08:28:00,57.6,55.3,30.12,North,0,0.0,0.0,92,0.00,,,0.00,VWS V14.01,2013-08-16 12:28:00,
2013-08-16 08:33:00,57.6,55.3,30.12,NW,315,1.6,1.6,92,0.00,,,0.00,VWS V14.01,2013-08-16 12:33:00,
2013-08-16 08:38:00,57.6,55.3,30.12,NW,315,0.0,1.3,92,0.00,,,0.00,VWS V14.01,2013-08-16 12:38:00,
2013-08-16 08:43:00,57.6,55.3,30.12,WNW,292,0.0,0.9,92,0.00,,,0.00,VWS V14.01,2013-08-16 12:43:00,
2013-08-16 08:48:00,57.6,55.3,30.12,NW,315,2.2,2.2,92,0.00,,,0.00,VWS V14.01,2013-08-16 12:48:00,
2013-08-16 08:53:00,57.6,55.3,30.12,WNW,292,0.0,1.6,92,0.00,,,0.00,VWS V14.01,2013-08-16 12:53:00,
2013-08-16 08:58:00,57.6,55.3,30.12,NNW,338,0.0,1.6,92,0.00,,,0.04,VWS V14.01,2013-08-16 12:58:00,
2013-08-16 09:03:00,57.6,55.3,30.12,North,0,0.0,1.1,92,0.00,,,0.00,VWS V14.01,2013-08-16 13:03:00,
2013-08-16 09:09:00,57.6,55.3,30.12,ENE,68,0.0,1.1,92,0.00,,,0.00,VWS V14.01,2013-08-16 13:09:00,
2013-08-16 09:14:00,57.6,55.3,30.12,NE,45,0.0,2.7,92,0.00,,,0.00,VWS V14.01,2013-08-16 13:14:00,
2013-08-16 09:19:00,57.6,55.3,30.15,NE,45,0.0,2.2,92,0.00,,,0.00,VWS V14.01,2013-08-16 13:19:00,
2013-08-16 09:24:00,57.6,55.3,30.15,NNE,22,0.0,0.0,92,0.00,,,0.00,VWS V14.01,2013-08-16 13:24:00,
2013-08-16 09:29:00,57.6,55.3,30.15,NE,45,0.0,0.9,92,0.00,,,0.00,VWS V14.01,2013-08-16 13:29:00,
2013-08-16 09:34:00,57.6,55.3,30.15,North,0,2.2,2.2,92,0.00,,,0.00,VWS V14.01,2013-08-16 13:34:00,
2013-08-16 09:39:00,57.6,55.3,30.15,South,180,0.0,1.3,92,0.00,,,0.00,VWS V14.01,2013-08-16 13:39:00,
2013-08-16 09:44:00,57.6,55.3,30.15,North,0,1.1,1.1,92,0.00,,,0.00,VWS V14.01,2013-08-16 13:44:00,
2013-08-16 09:49:00,57.6,55.3,30.15,NE,45,0.9,1.1,92,0.00,,,0.00,VWS V14.01,2013-08-16 13:49:00,
2013-08-16 09:54:00,57.6,55.3,30.15,West,270,2.0,3.4,92,0.00,,,0.00,VWS V14.01,2013-08-16 13:54:00,
2013-08-16 09:59:00,57.6,55.3,30.15,NNE,22,0.9,0.9,92,0.00,,,0.00,VWS V14.01,2013-08-16 13:59:00,
2013-08-16 10:04:00,57.6,55.3,30.12,NE,45,0.0,1.1,92,0.00,,,0.00,VWS V14.01,2013-08-16 14:04:00,
2013-08-16 10:09:00,57.6,55.3,30.12,NNW,338,0.0,3.6,92,0.00,,,0.00,VWS V14.01,2013-08-16 14:09:00,
2013-08-16 10:14:00,57.6,55.3,30.12,South,180,0.0,3.1,92,0.00,,,0.00,VWS V14.01,2013-08-16 14:14:00,
2013-08-16 10:19:00,57.6,55.3,30.15,North,0,0.9,1.6,92,0.00,,,0.00,VWS V14.01,2013-08-16 14:19:00,
2013-08-16 10:24:00,57.6,55.3,30.15,West,270,0.0,1.1,92,0.00,,,0.00,VWS V14.01,2013-08-16 14:24:00,
2013-08-16 10:30:00,57.6,55.3,30.15,NE,45,0.0,1.6,92,0.00,,,0.00,VWS V14.01,2013-08-16 14:30:00,
2013-08-16 10:35:00,57.6,55.3,30.15,NE,45,0.0,2.7,92,0.00,,,0.00,VWS V14.01,2013-08-16 14:35:00,
2013-08-16 10:40:00,57.6,55.3,30.15,SSW,202,0.0,1.1,92,0.00,,,0.00,VWS V14.01,2013-08-16 14:40:00,
2013-08-16 10:45:00,57.6,55.3,30.15,NE,45,3.6,3.6,92,0.00,,,0.00,VWS V14.01,2013-08-16 14:45:00,
2013-08-16 10:50:00,57.6,55.3,30.15,NW,315,0.0,1.1,92,0.00,,,0.00,VWS V14.01,2013-08-16 14:50:00,
2013-08-16 10:55:00,57.6,55.3,30.15,West,270,0.0,0.0,92,0.00,,,0.00,VWS V14.01,2013-08-16 14:55:00,
2013-08-16 11:00:00,57.6,55.3,30.15,NNE,22,1.3,2.2,92,0.00,,,0.00,VWS V14.01,2013-08-16 15:00:00,
2013-08-16 11:05:00,74.1,57.4,30.15,ESE,112,0.0,1.1,56,0.00,,,0.00,VWS V14.01,2013-08-16 15:05:00,
2013-08-16 11:10:00,74.1,57.4,30.15,North,0,0.0,3.4,56,0.00,,,0.00,VWS V14.01,2013-08-16 15:10:00,
2013-08-16 11:15:00,74.1,57.4,30.15,WNW,292,0.0,0.0,56,0.00,,,0.00,VWS V14.01,2013-08-16 15:15:00,
2013-08-16 11:21:00,74.1,57.4,30.15,NE,45,0.9,3.1,56,0.00,,,0.00,VWS V14.01,2013-08-16 15:21:00,
2013-08-16 11:26:00,74.1,57.4,30.15,WNW,292,0.0,1.1,56,0.00,,,0.00,VWS V14.01,2013-08-16 15:26:00,
2013-08-16 11:31:00,74.1,57.4,30.15,SSW,202,0.0,0.0,56,0.00,,,0.00,VWS V14.01,2013-08-16 15:31:00,
2013-08-16 11:36:00,74.1,57.4,30.15,West,270,1.6,5.8,56,0.00,,,0.00,VWS V14.01,2013-08-16 15:36:00,
2013-08-16 11:41:00,74.1,57.4,30.15,NNE,22,2.7,3.8,56,0.00,,,0.00,VWS V14.01,2013-08-16 15:41:00,
2013-08-16 11:46:00,74.1,57.4,30.15,NNE,22,4.9,4.9,56,0.00,,,0.00,VWS V14.01,2013-08-16 15:46:00,
2013-08-16 11:51:00,74.1,57.4,30.15,NNE,22,0.0,4.0,56,0.00,,,0.00,VWS V14.01,2013-08-16 15:51:00,
2013-08-16 11:56:00,74.1,57.4,30.15,NE,45,2.2,2.5,56,0.00,,,0.00,VWS V14.01,2013-08-16 15:56:00,
2013-08-16 12:01:00,74.1,57.4,30.15,NNW,338,0.0,0.0,56,0.00,,,0.00,VWS V14.01,2013-08-16 16:01:00,
2013-08-16 12:06:00,74.1,57.4,30.15,South,180,1.1,4.9,56,0.00,,,0.00,VWS V14.01,2013-08-16 16:06:00,
2013-08-16 12:11:00,74.1,57.4,30.15,North,0,0.0,2.0,56,0.00,,,0.00,VWS V14.01,2013-08-16 16:11:00,
2013-08-16 12:17:00,74.1,57.4,30.15,ENE,68,0.9,2.5,56,0.00,,,0.04,VWS V14.01,2013-08-16 16:17:00,
2013-08-16 12:22:00,74.1,54.3,30.15,NE,45,1.3,3.1,50,0.00,,,0.00,VWS V14.01,2013-08-16 16:22:00,
2013-08-16 12:27:00,74.1,53.8,30.15,ESE,112,1.1,1.1,49,0.00,,,0.00,VWS V14.01,2013-08-16 16:27:00,
2013-08-16 12:33:00,74.1,53.8,30.15,NW,315,0.9,2.2,49,0.00,,,0.00,VWS V14.01,2013-08-16 16:33:00,
2013-08-16 12:38:00,74.7,54.2,30.15,NE,45,0.9,3.8,49,0.00,,,0.00,VWS V14.01,2013-08-16 16:38:00,
2013-08-16 12:43:00,74.8,55.0,30.15,North,0,0.0,2.0,50,0.00,,,0.00,VWS V14.01,2013-08-16 16:43:00,
2013-08-16 12:48:00,74.8,55.0,30.15,North,0,0.0,2.9,50,0.00,,,0.00,VWS V14.01,2013-08-16 16:48:00,
2013-08-16 12:53:00,74.7,54.8,30.15,SSW,202,0.0,0.9,50,0.00,,,0.04,VWS V14.01,2013-08-16 16:53:00,
2013-08-16 12:58:00,74.8,54.4,30.15,North,0,2.2,3.1,49,0.00,,,0.00,VWS V14.01,2013-08-16 16:58:00,
2013-08-16 13:03:00,74.7,54.8,30.15,East,90,1.3,1.3,50,0.00,,,0.00,VWS V14.01,2013-08-16 17:03:00,
2013-08-16 13:08:00,74.7,54.8,30.12,WNW,292,0.9,1.6,50,0.00,,,0.00,VWS V14.01,2013-08-16 17:08:00,
2013-08-16 13:13:00,74.7,53.7,30.12,WSW,248,0.9,2.9,48,0.00,,,0.00,VWS V14.01,2013-08-16 17:13:00,
2013-08-16 13:18:00,74.8,55.0,30.12,North,0,1.3,3.8,50,0.00,,,0.00,VWS V14.01,2013-08-16 17:18:00,
2013-08-16 13:23:00,75.0,55.1,30.12,SSE,158,1.6,1.6,50,0.00,,,0.00,VWS V14.01,2013-08-16 17:23:00,
2013-08-16 13:28:00,75.0,55.1,30.12,North,0,0.9,0.9,50,0.00,,,0.00,VWS V14.01,2013-08-16 17:28:00,
2013-08-16 13:33:00,75.2,54.8,30.12,East,90,1.1,3.1,49,0.00,,,0.00,VWS V14.01,2013-08-16 17:33:00,
2013-08-16 13:38:00,75.0,54.0,30.12,South,180,2.0,3.8,48,0.00,,,0.00,VWS V14.01,2013-08-16 17:38:00,
2013-08-16 13:43:00,74.7,54.2,30.12,East,90,2.5,2.9,49,0.00,,,0.00,VWS V14.01,2013-08-16 17:43:00,
2013-08-16 13:49:00,74.5,54.1,30.12,SW,225,0.0,1.3,49,0.00,,,0.00,VWS V14.01,2013-08-16 17:49:00,
2013-08-16 13:54:00,75.0,54.6,30.12,NNW,338,2.0,5.4,49,0.00,,,0.00,VWS V14.01,2013-08-16 17:54:00,
2013-08-16 13:59:00,75.2,54.2,30.12,NW,315,2.2,3.8,48,0.00,,,0.00,VWS V14.01,2013-08-16 17:59:00,
2013-08-16 14:04:00,75.4,54.3,30.09,North,0,2.7,2.7,48,0.00,,,0.00,VWS V14.01,2013-08-16 18:04:00,
2013-08-16 14:09:00,75.6,55.1,30.09,ENE,68,0.0,1.3,49,0.00,,,0.00,VWS V14.01,2013-08-16 18:09:00,
2013-08-16 14:14:00,75.4,54.3,30.09,West,270,0.0,3.6,48,0.00,,,0.00,VWS V14.01,2013-08-16 18:14:00,
2013-08-16 14:19:00,75.4,54.3,30.09,NNE,22,2.2,2.2,48,0.00,,,0.00,VWS V14.01,2013-08-16 18:19:00,
2013-08-16 14:24:00,75.2,54.2,30.09,NW,315,0.0,0.0,48,0.00,,,0.04,VWS V14.01,2013-08-16 18:24:00,
2013-08-16 14:29:00,75.2,54.8,30.09,NE,45,1.3,1.3,49,0.00,,,0.00,VWS V14.01,2013-08-16 18:29:00,
2013-08-16 14:34:00,75.2,54.8,30.12,NW,315,2.0,2.2,49,0.00,,,0.00,VWS V14.01,2013-08-16 18:34:00,
2013-08-16 14:39:00,75.4,54.9,30.12,North,0,0.9,2.7,49,0.00,,,0.00,VWS V14.01,2013-08-16 18:39:00,
2013-08-16 14:45:00,75.4,54.3,30.12,NE,45,2.9,2.9,48,0.00,,,0.00,VWS V14.01,2013-08-16 18:45:00,
2013-08-16 14:50:00,75.4,54.9,30.09,ENE,68,3.6,3.6,49,0.00,,,0.00,VWS V14.01,2013-08-16 18:50:00,
2013-08-16 14:55:00,75.0,55.1,30.09,NE,45,0.0,2.9,50,0.00,,,0.00,VWS V14.01,2013-08-16 18:55:00,
2013-08-16 15:00:00,74.8,55.0,30.09,NE,45,2.9,4.3,50,0.00,,,0.00,VWS V14.01,2013-08-16 19:00:00,
2013-08-16 15:05:00,74.7,54.8,30.06,NE,45,1.1,2.7,50,0.00,,,0.00,VWS V14.01,2013-08-16 19:05:00,
2013-08-16 15:10:00,74.5,54.6,30.06,East,90,1.3,1.3,50,0.00,,,0.00,VWS V14.01,2013-08-16 19:10:00,
2013-08-16 15:15:00,74.3,55.0,30.06,NE,45,0.0,0.0,51,0.00,,,0.00,VWS V14.01,2013-08-16 19:15:00,
2013-08-16 15:20:00,74.1,54.9,30.09,North,0,0.0,0.0,51,0.00,,,0.00,VWS V14.01,2013-08-16 19:20:00,
2013-08-16 15:25:00,74.1,55.4,30.09,NE,45,0.0,0.0,52,0.00,,,0.00,VWS V14.01,2013-08-16 19:25:00,
2013-08-16 15:30:00,74.1,55.9,30.09,West,270,0.0,0.0,53,0.00,,,0.00,VWS V14.01,2013-08-16 19:30:00,
2013-08-16 15:35:00,74.1,56.4,30.09,NE,45,0.0,0.0,54,0.00,,,0.00,VWS V14.01,2013-08-16 19:35:00,
2013-08-16 15:42:00,74.1,56.9,30.09,NW,315,0.0,1.1,55,0.00,,,0.00,VWS V14.01,2013-08-16 19:42:00,
2013-08-16 15:47:00,74.1,56.9,30.09,NNE,22,1.1,2.9,55,0.00,,,0.00,VWS V14.01,2013-08-16 19:47:00,
2013-08-16 15:53:00,73.9,56.8,30.06,NW,315,0.0,0.9,55,0.00,,,0.00,VWS V14.01,2013-08-16 19:53:00,
2013-08-16 15:58:00,73.9,56.8,30.06,SSE,158,0.9,2.7,55,0.00,,,0.00,VWS V14.01,2013-08-16 19:58:00,
2013-08-16 16:03:00,73.8,56.1,30.06,East,90,2.0,2.0,54,0.00,,,0.00,VWS V14.01,2013-08-16 20:03:00,
2013-08-16 16:08:00,73.8,56.6,30.09,ENE,68,0.0,0.9,55,0.00,,,0.00,VWS V14.01,2013-08-16 20:08:00,
2013-08-16 16:13:00,73.8,56.6,30.09,ENE,68,1.1,1.1,55,0.00,,,0.00,VWS V14.01,2013-08-16 20:13:00,
2013-08-16 16:18:00,73.8,56.6,30.09,ENE,68,0.0,0.0,55,0.00,,,0.00,VWS V14.01,2013-08-16 20:18:00,
2013-08-16 16:23:00,73.6,55.9,30.09,North,0,0.9,1.6,54,0.00,,,0.00,VWS V14.01,2013-08-16 20:23:00,
2013-08-16 16:28:00,73.6,55.9,30.09,ENE,68,0.0,0.0,54,0.00,,,0.00,VWS V14.01,2013-08-16 20:28:00,
2013-08-16 16:33:00,73.6,55.9,30.09,North,0,0.0,0.0,54,0.00,,,0.00,VWS V14.01,2013-08-16 20:33:00,
2013-08-16 16:38:00,73.4,56.3,30.09,NNW,338,0.0,1.6,55,0.00,,,0.00,VWS V14.01,2013-08-16 20:38:00,
2013-08-16 16:43:00,73.4,56.3,30.09,NNW,338,0.0,0.0,55,0.00,,,0.00,VWS V14.01,2013-08-16 20:43:00,
2013-08-16 16:48:00,73.4,56.8,30.09,ENE,68,0.0,0.9,56,0.00,,,0.00,VWS V14.01,2013-08-16 20:48:00,
2013-08-16 16:54:00,73.4,56.8,30.09,ENE,68,0.0,0.0,56,0.00,,,0.00,VWS V14.01,2013-08-16 20:54:00,
2013-08-16 16:59:00,73.4,56.8,30.09,NE,45,0.0,0.0,56,0.00,,,0.00,VWS V14.01,2013-08-16 20:59:00,
2013-08-16 17:04:00,73.4,56.8,30.09,East,90,0.0,0.0,56,0.00,,,0.00,VWS V14.01,2013-08-16 21:04:00,
2013-08-16 17:09:00,73.0,56.4,30.09,East,90,0.0,0.0,56,0.00,,,0.00,VWS V14.01,2013-08-16 21:09:00,
2013-08-16 17:14:00,72.9,57.2,30.09,NE,45,0.0,0.0,58,0.00,,,0.00,VWS V14.01,2013-08-16 21:14:00,
2013-08-16 17:19:00,72.9,58.2,30.09,NE,45,0.0,0.0,60,0.00,,,0.00,VWS V14.01,2013-08-16 21:19:00,
2013-08-16 17:24:00,72.9,58.2,30.09,NNW,338,0.0,0.0,60,0.00,,,0.04,VWS V14.01,2013-08-16 21:24:00,
2013-08-16 17:29:00,72.7,58.5,30.09,NNW,338,0.0,0.0,61,0.00,,,0.00,VWS V14.01,2013-08-16 21:29:00,
2013-08-16 17:34:00,72.7,58.5,30.09,NNW,338,0.0,0.0,61,0.00,,,0.00,VWS V14.01,2013-08-16 21:34:00,
2013-08-16 17:39:00,72.3,58.6,30.09,NNW,338,0.0,0.0,62,0.00,,,0.00,VWS V14.01,2013-08-16 21:39:00,
2013-08-16 17:44:00,72.1,58.4,30.09,NNW,338,0.0,0.0,62,0.00,,,0.00,VWS V14.01,2013-08-16 21:44:00,
2013-08-16 17:50:00,72.0,58.7,30.09,NNW,338,0.0,0.0,63,0.00,,,0.00,VWS V14.01,2013-08-16 21:50:00,
2013-08-16 17:55:00,71.8,58.1,30.09,East,90,0.0,0.0,62,0.00,,,0.04,VWS V14.01,2013-08-16 21:55:00,
2013-08-16 18:00:00,71.8,58.1,30.09,East,90,0.0,0.0,62,0.00,,,0.00,VWS V14.01,2013-08-16 22:00:00,
2013-08-16 18:05:00,71.8,58.1,30.12,East,90,0.0,0.0,62,0.00,,,0.00,VWS V14.01,2013-08-16 22:05:00,
2013-08-16 18:10:00,71.8,58.1,30.12,East,90,0.0,0.0,62,0.00,,,0.00,VWS V14.01,2013-08-16 22:10:00,
2013-08-16 18:15:00,71.2,58.5,30.12,NE,45,0.0,0.0,64,0.00,,,0.00,VWS V14.01,2013-08-16 22:15:00,
2013-08-16 18:20:00,71.1,58.7,30.12,NE,45,0.0,0.0,65,0.00,,,0.00,VWS V14.01,2013-08-16 22:20:00,
2013-08-16 18:25:00,71.1,58.7,30.12,North,0,0.0,0.0,65,0.00,,,0.04,VWS V14.01,2013-08-16 22:25:00,
2013-08-16 18:30:00,70.9,58.5,30.12,NE,45,0.0,0.0,65,0.00,,,0.00,VWS V14.01,2013-08-16 22:30:00,
2013-08-16 18:35:00,70.9,58.5,30.09,East,90,1.1,1.1,65,0.00,,,0.00,VWS V14.01,2013-08-16 22:35:00,
2013-08-16 18:40:00,70.5,58.6,30.09,NE,45,0.0,0.0,66,0.00,,,0.00,VWS V14.01,2013-08-16 22:40:00,
2013-08-16 18:45:00,70.5,58.6,30.09,NE,45,0.0,0.0,66,0.00,,,0.00,VWS V14.01,2013-08-16 22:45:00,
2013-08-16 18:57:00,70.2,59.1,30.09,NE,45,0.0,0.0,68,0.00,,,0.00,VWS V14.01,2013-08-16 22:57:00,
2013-08-16 19:02:00,70.2,59.1,30.09,NE,45,0.0,0.0,68,0.00,,,0.00,VWS V14.01,2013-08-16 23:02:00,
2013-08-16 19:07:00,70.0,59.3,30.12,NE,45,0.0,0.0,69,0.00,,,0.00,VWS V14.01,2013-08-16 23:07:00,
2013-08-16 19:12:00,69.8,58.8,30.12,ENE,68,0.0,0.9,68,0.00,,,0.00,VWS V14.01,2013-08-16 23:12:00,
2013-08-16 19:17:00,69.8,59.2,30.12,ENE,68,0.0,0.0,69,0.00,,,0.00,VWS V14.01,2013-08-16 23:17:00,
2013-08-16 19:22:00,69.8,58.8,30.09,ENE,68,0.0,0.0,68,0.00,,,0.00,VWS V14.01,2013-08-16 23:22:00,
2013-08-16 19:27:00,69.8,58.8,30.09,ENE,68,0.0,0.0,68,0.00,,,0.00,VWS V14.01,2013-08-16 23:27:00,
2013-08-16 19:32:00,69.8,58.8,30.09,ENE,68,0.0,0.0,68,0.00,,,0.00,VWS V14.01,2013-08-16 23:32:00,
2013-08-16 19:37:00,69.8,58.8,30.12,ENE,68,0.0,0.0,68,0.00,,,0.00,VWS V14.01,2013-08-16 23:37:00,
2013-08-16 19:43:00,69.4,59.2,30.12,ENE,68,0.0,0.0,70,0.00,,,0.00,VWS V14.01,2013-08-16 23:43:00,
2013-08-16 19:48:00,69.4,59.2,30.12,ENE,68,0.0,0.0,70,0.00,,,0.00,VWS V14.01,2013-08-16 23:48:00,
2013-08-16 19:53:00,69.4,59.2,30.12,ENE,68,0.0,0.0,70,0.00,,,0.00,VWS V14.01,2013-08-16 23:53:00,
2013-08-16 19:58:00,69.4,59.2,30.12,ENE,68,0.0,0.0,70,0.00,,,0.00,VWS V14.01,2013-08-16 23:58:00,
2013-08-16 20:03:00,69.4,59.2,30.12,ENE,68,0.0,0.0,70,0.00,,,0.00,VWS V14.01,2013-08-17 00:03:00,
2013-08-16 20:08:00,68.5,59.5,30.12,ENE,68,0.0,0.0,73,0.00,,,0.00,VWS V14.01,2013-08-17 00:08:00,
2013-08-16 20:13:00,68.5,59.5,30.12,ENE,68,0.0,0.0,73,0.00,,,0.00,VWS V14.01,2013-08-17 00:13:00,
2013-08-16 20:18:00,68.5,59.5,30.12,ENE,68,0.0,0.0,73,0.00,,,0.00,VWS V14.01,2013-08-17 00:18:00,
2013-08-16 20:23:00,67.5,59.3,30.12,ENE,68,0.0,0.0,75,0.00,,,0.00,VWS V14.01,2013-08-17 00:23:00,
2013-08-16 20:28:00,67.5,59.3,30.12,ENE,68,0.0,0.0,75,0.00,,,0.00,VWS V14.01,2013-08-17 00:28:00,
2013-08-16 20:33:00,67.5,59.3,30.12,ENE,68,0.0,0.0,75,0.00,,,0.00,VWS V14.01,2013-08-17 00:33:00,
2013-08-16 20:38:00,67.5,59.3,30.12,ENE,68,0.0,0.0,75,0.00,,,0.00,VWS V14.01,2013-08-17 00:38:00,
2013-08-16 20:43:00,67.5,59.3,30.12,ENE,68,0.0,0.0,75,0.00,,,0.00,VWS V14.01,2013-08-17 00:43:00,
2013-08-16 20:48:00,67.5,59.3,30.12,ENE,68,0.0,0.0,75,0.00,,,0.00,VWS V14.01,2013-08-17 00:48:00,
2013-08-16 20:54:00,65.8,59.2,30.12,ENE,68,0.0,0.0,79,0.00,,,0.00,VWS V14.01,2013-08-17 00:54:00,
2013-08-16 20:59:00,65.7,59.0,30.12,ENE,68,0.0,0.0,79,0.00,,,0.00,VWS V14.01,2013-08-17 00:59:00,
2013-08-16 21:04:00,65.7,59.0,30.12,ENE,68,0.0,0.0,79,0.00,,,0.00,VWS V14.01,2013-08-17 01:04:00,
2013-08-16 21:09:00,65.7,59.0,30.12,ENE,68,0.0,0.0,79,0.00,,,0.00,VWS V14.01,2013-08-17 01:09:00,
2013-08-16 21:14:00,64.9,59.0,30.12,ENE,68,0.0,0.0,81,0.00,,,0.00,VWS V14.01,2013-08-17 01:14:00,
2013-08-16 21:19:00,64.9,59.0,30.12,ENE,68,0.0,0.0,81,0.00,,,0.00,VWS V14.01,2013-08-17 01:19:00,
2013-08-16 21:24:00,64.9,59.0,30.12,ENE,68,0.0,0.0,81,0.00,,,0.00,VWS V14.01,2013-08-17 01:24:00,
2013-08-16 21:29:00,64.2,58.6,30.12,ENE,68,0.0,0.0,82,0.00,,,0.00,VWS V14.01,2013-08-17 01:29:00,
2013-08-16 21:34:00,64.2,58.6,30.15,ENE,68,0.0,0.0,82,0.00,,,0.00,VWS V14.01,2013-08-17 01:34:00,
2013-08-16 21:39:00,64.2,58.6,30.15,ENE,68,0.0,0.0,82,0.00,,,0.00,VWS V14.01,2013-08-17 01:39:00,
2013-08-16 21:44:00,64.2,58.6,30.15,ENE,68,0.0,0.0,82,0.00,,,0.00,VWS V14.01,2013-08-17 01:44:00,
2013-08-16 21:49:00,64.2,58.6,30.15,ENE,68,0.0,0.0,82,0.00,,,0.00,VWS V14.01,2013-08-17 01:49:00,
2013-08-16 21:55:00,64.2,58.6,30.15,ENE,68,0.0,0.0,82,0.00,,,0.00,VWS V14.01,2013-08-17 01:55:00,
2013-08-16 22:00:00,64.2,58.6,30.15,ENE,68,0.0,0.0,82,0.00,,,0.00,VWS V14.01,2013-08-17 02:00:00,
2013-08-16 22:05:00,64.2,58.6,30.15,ENE,68,0.0,0.0,82,0.00,,,0.00,VWS V14.01,2013-08-17 02:05:00,
2013-08-16 22:10:00,64.2,58.6,30.15,ENE,68,0.0,0.0,82,0.00,,,0.00,VWS V14.01,2013-08-17 02:10:00,
2013-08-16 22:15:00,64.2,58.6,30.15,ENE,68,0.0,0.0,82,0.00,,,0.00,VWS V14.01,2013-08-17 02:15:00,
2013-08-16 22:20:00,64.2,58.6,30.12,ENE,68,0.0,0.0,82,0.00,,,0.00,VWS V14.01,2013-08-17 02:20:00,
2013-08-16 22:25:00,64.2,58.6,30.12,ENE,68,0.0,0.0,82,0.00,,,0.00,VWS V14.01,2013-08-17 02:25:00,
2013-08-16 22:30:00,64.2,58.6,30.12,ENE,68,0.0,0.0,82,0.00,,,0.00,VWS V14.01,2013-08-17 02:30:00,
2013-08-16 22:36:00,64.2,58.6,30.15,ENE,68,0.0,0.0,82,0.00,,,0.00,VWS V14.01,2013-08-17 02:36:00,
2013-08-16 22:41:00,64.2,58.6,30.15,ENE,68,0.0,0.0,82,0.00,,,0.00,VWS V14.01,2013-08-17 02:41:00,
2013-08-16 22:46:00,64.2,58.6,30.15,ENE,68,0.0,0.0,82,0.00,,,0.00,VWS V14.01,2013-08-17 02:46:00,
2013-08-16 22:51:00,64.2,58.6,30.12,ENE,68,0.0,0.0,82,0.00,,,0.00,VWS V14.01,2013-08-17 02:51:00,
2013-08-16 22:56:00,64.2,58.6,30.12,ENE,68,0.0,0.0,82,0.00,,,0.00,VWS V14.01,2013-08-17 02:56:00,
2013-08-16 23:01:00,62.4,58.5,30.12,ENE,68,0.0,0.0,87,0.00,,,0.00,VWS V14.01,2013-08-17 03:01:00,
2013-08-16 23:06:00,62.4,58.5,30.15,ENE,68,0.0,0.0,87,0.00,,,0.00,VWS V14.01,2013-08-17 03:06:00,
2013-08-16 23:11:00,62.4,58.5,30.15,ENE,68,0.0,0.0,87,0.00,,,0.00,VWS V14.01,2013-08-17 03:11:00,
2013-08-16 23:16:00,62.4,58.5,30.15,ENE,68,0.0,0.0,87,0.00,,,0.00,VWS V14.01,2013-08-17 03:16:00,
2013-08-16 23:21:00,62.4,58.5,30.15,ENE,68,0.0,0.0,87,0.00,,,0.00,VWS V14.01,2013-08-17 03:21:00,
2013-08-16 23:26:00,62.4,58.5,30.15,ENE,68,0.0,0.0,87,0.00,,,0.00,VWS V14.01,2013-08-17 03:26:00,
2013-08-16 23:32:00,62.4,58.5,30.15,ENE,68,0.0,0.0,87,0.00,,,0.00,VWS V14.01,2013-08-17 03:32:00,
2013-08-16 23:37:00,62.4,58.5,30.15,ENE,68,0.0,0.0,87,0.00,,,0.00,VWS V14.01,2013-08-17 03:37:00,
2013-08-16 23:42:00,62.4,58.5,30.15,ENE,68,0.0,0.0,87,0.00,,,0.00,VWS V14.01,2013-08-17 03:42:00,
2013-08-16 23:47:00,62.4,58.5,30.15,ENE,68,0.0,0.0,87,0.00,,,0.00,VWS V14.01,2013-08-17 03:47:00,
2013-08-16 23:52:00,62.4,58.5,30.15,ENE,68,0.0,0.0,87,0.00,,,0.00,VWS V14.01,2013-08-17 03:52:00,
2013-08-16 23:57:00,62.4,58.5,30.15,ENE,68,0.0,0.0,87,0.00,,,0.00,VWS V14.01,2013-08-17 03:57:00,